• In Lithuania
  • List of Countries
  • For 7 days
  • Water Temperature
  • Satellite Maps
  • Weather Map
  • Weather Widgets
  • user-avatar
    Login

    Hourly Weather Verhneyanchenkov

    Today, 17 July, Tuesday

    Time Temperature Precipitation Wind Pressure Humidity
    00:00 +22°C° 0 mm 4 mps 750 mmHg 78%
    01:00 +22°C° 0 mm 4 mps 750 mmHg 79%
    02:00 +21°C° 0 mm 4 mps 750 mmHg 80%
    03:00 +21°C° 0 mm 3 mps 750 mmHg 85%
    04:00 +21°C° 0.6 mm 4 mps 750 mmHg 85%
    05:00 +21°C° 0.6 mm 4 mps 750 mmHg 85%
    06:00 +21°C° 0.6 mm 4 mps 750 mmHg 85%
    07:00 +23°C° 0.4 mm 5 mps 750 mmHg 77%
    08:00 +24°C° 0.4 mm 6 mps 750 mmHg 69%
    09:00 +27°C° 0.4 mm 7 mps 750 mmHg 61%
    10:00 +28°C° 0.5 mm 7 mps 750 mmHg 58%
    11:00 +29°C° 0.5 mm 8 mps 750 mmHg 55%
    12:00 +29°C° 0.5 mm 8 mps 750 mmHg 53%
    13:00 +31°C° 0.3 mm 8 mps 750 mmHg 50%
    14:00 +31°C° 0.3 mm 8 mps 750 mmHg 48%
    15:00 +31°C° 0.3 mm 8 mps 750 mmHg 46%
    16:00 +29°C° 0 mm 8 mps 750 mmHg 46%
    17:00 +29°C° 0 mm 8 mps 750 mmHg 46%
    18:00 +28°C° 0 mm 7 mps 750 mmHg 47%
    19:00 +27°C° 0 mm 6 mps 750 mmHg 51%
    20:00 +26°C° 0 mm 5 mps 750 mmHg 54%
    21:00 +23°C° 0 mm 5 mps 750 mmHg 58%
    22:00 +23°C° 0 mm 5 mps 750 mmHg 61%
    23:00 +23°C° 0 mm 5 mps 750 mmHg 64%

    Tomorrow, 18 July, Wednesday

    Time Temperature Precipitation Wind Pressure Humidity
    00:00 +22°C° 0 mm 5 mps 750 mmHg 67%
    01:00 +22°C° 0 mm 5 mps 750 mmHg 70%
    02:00 +22°C° 0 mm 5 mps 750 mmHg 74%
    03:00 +22°C° 0 mm 5 mps 750 mmHg 77%
    04:00 +22°C° 0 mm 5 mps 751 mmHg 77%
    05:00 +22°C° 0 mm 5 mps 751 mmHg 78%
    06:00 +22°C° 0 mm 5 mps 751 mmHg 78%
    07:00 +24°C° 0 mm 6 mps 751 mmHg 70%
    08:00 +26°C° 0 mm 6 mps 751 mmHg 62%
    09:00 +28°C° 0 mm 7 mps 751 mmHg 53%
    10:00 +29°C° 0 mm 7 mps 751 mmHg 50%
    11:00 +30°C° 0 mm 7 mps 751 mmHg 47%
    12:00 +32°C° 0 mm 7 mps 750 mmHg 44%
    13:00 +32°C° 0 mm 7 mps 750 mmHg 43%
    14:00 +32°C° 0 mm 7 mps 750 mmHg 42%
    15:00 +32°C° 0 mm 6 mps 750 mmHg 42%
    16:00 +32°C° 0 mm 6 mps 750 mmHg 43%
    17:00 +32°C° 0 mm 5 mps 750 mmHg 43%
    18:00 +30°C° 0 mm 5 mps 750 mmHg 44%
    19:00 +29°C° 0 mm 4 mps 751 mmHg 48%
    20:00 +27°C° 0 mm 3 mps 751 mmHg 52%
    21:00 +26°C° 0 mm 2 mps 751 mmHg 56%
    22:00 +25°C° 0 mm 2 mps 751 mmHg 57%
    23:00 +25°C° 0 mm 2 mps 751 mmHg 59%

    Day after tomorrow, 19 July, Thursday

    Time Temperature Precipitation Wind Pressure Humidity
    00:00 +24°C° 0 mm 1 mps 751 mmHg 60%
    01:00 +24°C° 0 mm 1 mps 751 mmHg 61%
    02:00 +23°C° 0 mm 1 mps 751 mmHg 61%
    03:00 +23°C° 0 mm 1 mps 751 mmHg 62%
    04:00 +23°C° 0.3 mm 1 mps 751 mmHg 65%
    05:00 +23°C° 0.3 mm 1 mps 751 mmHg 67%
    06:00 +24°C° 0.3 mm 1 mps 751 mmHg 70%
    07:00 +25°C° 0.9 mm 1 mps 752 mmHg 66%
    08:00 +26°C° 0.9 mm 2 mps 752 mmHg 63%
    09:00 +27°C° 0.9 mm 2 mps 752 mmHg 59%
    10:00 +28°C° 0.2 mm 2 mps 752 mmHg 57%
    11:00 +29°C° 0.2 mm 2 mps 752 mmHg 55%
    12:00 +30°C° 0.2 mm 3 mps 752 mmHg 53%
    13:00 +31°C° 0 mm 3 mps 752 mmHg 51%
    14:00 +31°C° 0 mm 3 mps 752 mmHg 48%
    15:00 +33°C° 0 mm 3 mps 751 mmHg 45%
    16:00 +33°C° 0 mm 3 mps 751 mmHg 45%
    17:00 +33°C° 0 mm 3 mps 751 mmHg 45%
    18:00 +33°C° 0 mm 3 mps 752 mmHg 45%
    19:00 +30°C° 0.1 mm 3 mps 752 mmHg 50%
    20:00 +28°C° 0.1 mm 2 mps 752 mmHg 55%
    21:00 +27°C° 0.1 mm 1 mps 752 mmHg 59%
    22:00 +26°C° 0.6 mm 1 mps 752 mmHg 64%
    23:00 +25°C° 0.6 mm 1 mps 752 mmHg 68%

    20 July, Friday

    Time Temperature Precipitation Wind Pressure Humidity
    00:00 +25°C° 0.6 mm 1 mps 752 mmHg 72%
    01:00 +24°C° 0.9 mm 1 mps 752 mmHg 74%
    02:00 +24°C° 0.9 mm 1 mps 752 mmHg 77%
    03:00 +23°C° 0.9 mm 1 mps 752 mmHg 79%
    04:00 +24°C° 0.2 mm 1 mps 752 mmHg 79%
    05:00 +24°C° 0.2 mm 1 mps 752 mmHg 79%
    06:00 +24°C° 0.2 mm 1 mps 752 mmHg 78%
    07:00 +26°C° 0.1 mm 1 mps 752 mmHg 71%
    08:00 +28°C° 0.1 mm 1 mps 752 mmHg 64%
    09:00 +30°C° 0.1 mm 2 mps 752 mmHg 57%
    10:00 +31°C° 0 mm 2 mps 752 mmHg 52%
    11:00 +32°C° 0 mm 2 mps 752 mmHg 47%
    12:00 +34°C° 0 mm 2 mps 752 mmHg 42%
    13:00 +34°C° 0.1 mm 2 mps 752 mmHg 46%
    14:00 +32°C° 0.1 mm 2 mps 752 mmHg 49%
    15:00 +31°C° 0.1 mm 2 mps 752 mmHg 52%
    16:00 +31°C° 0 mm 2 mps 751 mmHg 51%
    17:00 +32°C° 0 mm 2 mps 751 mmHg 50%
    18:00 +32°C° 0 mm 2 mps 751 mmHg 49%
    19:00 +30°C° 0.1 mm 2 mps 751 mmHg 54%
    20:00 +29°C° 0.1 mm 2 mps 752 mmHg 59%
    21:00 +28°C° 0.1 mm 2 mps 752 mmHg 64%
    22:00 +27°C° 0.4 mm 2 mps 752 mmHg 67%
    23:00 +26°C° 0.4 mm 1 mps 751 mmHg 70%

    21 July, Saturday

    Time Temperature Precipitation Wind Pressure Humidity
    00:00 +26°C° 0.4 mm 1 mps 751 mmHg 72%
    01:00 +26°C° 0.2 mm 1 mps 751 mmHg 73%
    02:00 +25°C° 0.2 mm 1 mps 751 mmHg 74%
    03:00 +25°C° 0.2 mm 1 mps 751 mmHg 75%
    04:00 +25°C° 0.2 mm 2 mps 751 mmHg 77%
    05:00 +25°C° 0.2 mm 2 mps 751 mmHg 79%
    06:00 +25°C° 0.2 mm 2 mps 752 mmHg 80%
    07:00 +26°C° 0.1 mm 2 mps 752 mmHg 74%
    08:00 +28°C° 0.1 mm 3 mps 752 mmHg 69%
    09:00 +29°C° 0.1 mm 3 mps 752 mmHg 63%
    10:00 +30°C° 0 mm 4 mps 752 mmHg 59%
    11:00 +32°C° 0 mm 4 mps 751 mmHg 55%
    12:00 +33°C° 0 mm 4 mps 751 mmHg 50%
    13:00 +34°C° 0.1 mm 5 mps 751 mmHg 48%
    14:00 +34°C° 0.1 mm 5 mps 751 mmHg 47%
    15:00 +34°C° 0.1 mm 5 mps 751 mmHg 45%
    16:00 +34°C° 0 mm 4 mps 751 mmHg 45%
    17:00 +34°C° 0 mm 4 mps 752 mmHg 46%
    18:00 +33°C° 0 mm 4 mps 752 mmHg 47%
    19:00 +30°C° 0 mm 4 mps 752 mmHg 51%
    20:00 +29°C° 0 mm 3 mps 752 mmHg 56%
    21:00 +27°C° 0 mm 2 mps 752 mmHg 61%
    22:00 +27°C° 0 mm 2 mps 752 mmHg 63%
    23:00 +26°C° 0 mm 2 mps 752 mmHg 65%

    22 July, Sunday

    Time Temperature Precipitation Wind Pressure Humidity
    00:00 +25°C° 0 mm 2 mps 752 mmHg 67%
    01:00 +25°C° 0 mm 2 mps 752 mmHg 68%
    02:00 +25°C° 0 mm 2 mps 752 mmHg 69%
    03:00 +24°C° 0 mm 2 mps 752 mmHg 71%
    04:00 +24°C° 0 mm 2 mps 752 mmHg 72%
    05:00 +24°C° 0 mm 2 mps 752 mmHg 73%
    06:00 +24°C° 0 mm 1 mps 753 mmHg 74%
    07:00 +26°C° 0 mm 1 mps 753 mmHg 67%
    08:00 +28°C° 0 mm 1 mps 753 mmHg 60%
    09:00 +30°C° 0 mm 2 mps 753 mmHg 53%
    10:00 +31°C° 0 mm 2 mps 753 mmHg 49%
    11:00 +32°C° 0 mm 2 mps 752 mmHg 44%
    12:00 +34°C° 0 mm 2 mps 752 mmHg 40%
    13:00 +35°C° 0 mm 2 mps 752 mmHg 38%
    14:00 +35°C° 0 mm 2 mps 752 mmHg 37%
    15:00 +36°C° 0 mm 2 mps 752 mmHg 35%
    16:00 +35°C° 0 mm 2 mps 751 mmHg 37%
    17:00 +35°C° 0 mm 2 mps 751 mmHg 38%
    18:00 +34°C° 0 mm 1 mps 751 mmHg 39%
    19:00 +32°C° 0 mm 1 mps 752 mmHg 43%
    20:00 +31°C° 0 mm 1 mps 752 mmHg 46%
    21:00 +30°C° 0 mm 1 mps 752 mmHg 50%
    22:00 +29°C° 0 mm 1 mps 752 mmHg 52%
    23:00 +28°C° 0 mm 1 mps 752 mmHg 54%
    Show more